Portada
METAR-TAF:

METAR-TAF

Aeroports :

Salinas, Equador

latitud: 02-12-18S, longitud: 080-59-20W, altitud: 5 m

Observació

L'informe es va fer fa 25 minuts, a les 13:00 UTC
Vent 12 kt del Oest/Sud-Oest
Temperatura 23°C
Humitat 83%
Pressió 1012 hPa
Visibilitat 10 km o més
sense núvols per sota de 1500 mi sense presència de cumulonimbus.

METAR: SESA 111300Z 25012KT CAVOK 23/20 Q1012 RMK A2991

Hora: 08:25 (13:25 UTC)


TAF: manca

Observacions i pronòstics meteorològics de més de 4000 aeroports (METAR i TAF).

Les estacions disponibles són els punts grocs i vermells al mapa.

Posi el ratolí al punt desitjat per veure el nom de l'estació.

Feu clic per veure les observacions i els pronòstics meteorològics.

Per canviar el mapa: feu clic els botons verds amb una creu de color negre per apropar; al botó verd amb un guió per allunyar la imatge; o en les fletxes verdes per a mapes adjacents.


METAR-TAF: